Louisville Bowman, KY

1:24 PM EST on November 18, 2017 (GMT -0500)
Bowman

Weather History for KLOU - April, 2014

Change the Weather History Date:

Thursday, April 10, 2014

  Actual Average Record
Temperature  
Mean Temperature 63 °F 55 °F  
Max Temperature 79 °F 65 °F 88 °F (2011)
Min Temperature 46 °F 45 °F 27 °F (1985)
Degree Days  
Heating Degree Days 2 11  
Month to date heating degree days 77 120  
Since 1 July heating degree days 4563 4043  
Cooling Degree Days 0 1  
Month to date cooling degree days 4 10  
Year to date cooling degree days 4 14  
Growing Degree Days 14 (Base 50)    
Moisture  
Dew Point 37 °F    
Average Humidity 41    
Maximum Humidity 56    
Minimum Humidity 25    
Precipitation  
Precipitation 0.00 in 0.13 in 1.43 in (1990)
Month to date precipitation 3.81 1.17  
Year to date precipitation 11.76 11.89  
Sea Level Pressure  
Sea Level Pressure 30.00 in    
Wind  
Wind Speed 10 mph (South)    
Max Wind Speed 22 mph    
Max Gust Speed 32 mph    
Visibility 10 miles    
Events      
T = Trace of Precipitation, MM = Missing Value Source: NWS Daily Summary

Daily Weather History Graph

Daily Weather History Graph

Search for Another Location

Airport or City:

Trip Planner

Search our weather history database for the weather conditions in past years. The results will help you decide how hot, cold, wet, or windy it might be!

Date:

Astronomy

Apr. 10, 2014 Rise Set
Actual Time 7:14 AM EDT 8:14 PM EDT
Civil Twilight 6:47 AM EDT 8:41 PM EDT
Nautical Twilight 6:15 AM EDT 9:13 PM EDT
Astronomical Twilight 5:41 AM EDT 9:46 PM EDT
Moon 4:00 PM EDT (4/10) 4:32 AM EDT (4/10)
Length of Visible Light 13h 54m
Length of Day
13h 00m
Waxing Gibbous, 79% of the Moon is Illuminated
Apr 10
Waxing Gibbous
Apr 15
Full
Apr 22
Last Quarter
Apr 29
New
May 6
First Quarter

Hourly Weather History & Observations

Time (EDT) Temp. Dew Point Humidity Pressure Visibility Wind Dir Wind Speed Gust Speed Precip Events Conditions
12:53 AM 48.0 °F 33.1 °F 56% 30.08 in 10.0 mi Calm Calm - N/A   Clear
1:53 AM 48.0 °F 34.0 °F 58% 30.08 in 10.0 mi South 4.6 mph - N/A   Clear
2:53 AM 50.0 °F 32.0 °F 50% 30.07 in 10.0 mi South 3.5 mph - N/A   Clear
3:53 AM 48.0 °F 32.0 °F 54% 30.06 in 10.0 mi South 3.5 mph - N/A   Clear
4:53 AM 48.0 °F 32.0 °F 54% 30.06 in 10.0 mi SSE 3.5 mph - N/A   Clear
5:53 AM 48.9 °F 32.0 °F 52% 30.06 in 10.0 mi South 5.8 mph - N/A   Clear
6:53 AM 48.9 °F 32.0 °F 52% 30.06 in 10.0 mi SSE 5.8 mph - N/A   Clear
7:53 AM 50.0 °F 33.1 °F 52% 30.08 in 10.0 mi South 6.9 mph - N/A   Clear
8:53 AM 53.6 °F 33.8 °F 47% 30.08 in 10.0 mi South 6.9 mph - N/A   Clear
9:53 AM 57.2 °F 35.6 °F 44% 30.06 in 10.0 mi South 12.7 mph 20.7 mph N/A   Clear
10:53 AM 64.9 °F 37.9 °F 37% 30.06 in 10.0 mi SSW 10.4 mph - N/A   Clear
11:53 AM 68.0 °F 39.0 °F 35% 30.04 in 10.0 mi South 12.7 mph 21.9 mph N/A   Clear
12:53 PM 72.0 °F 37.9 °F 29% 30.00 in 10.0 mi SSW 19.6 mph 26.5 mph N/A   Clear
1:53 PM 73.9 °F 39.0 °F 28% 29.97 in 10.0 mi SSW 17.3 mph 25.3 mph N/A   Clear
2:53 PM 75.9 °F 39.9 °F 27% 29.95 in 10.0 mi SSW 12.7 mph 25.3 mph N/A   Clear
3:53 PM 77.0 °F 41.0 °F 28% 29.92 in 10.0 mi SSW 16.1 mph 26.5 mph N/A   Clear
4:53 PM 79.0 °F 41.0 °F 26% 29.89 in 10.0 mi SSW 15.0 mph 25.3 mph N/A   Clear
5:53 PM 78.1 °F 39.9 °F 25% 29.89 in 10.0 mi SSW 15.0 mph 27.6 mph N/A   Clear
6:53 PM 77.0 °F 41.0 °F 28% 29.90 in 10.0 mi South 13.8 mph 23.0 mph N/A   Clear
7:53 PM 75.9 °F 41.0 °F 29% 29.91 in 10.0 mi South 9.2 mph - N/A   Clear
8:53 PM 73.9 °F 39.9 °F 29% 29.93 in 10.0 mi South 10.4 mph 18.4 mph N/A   Clear
9:53 PM 72.0 °F 41.0 °F 33% 29.95 in 10.0 mi South 10.4 mph - N/A   Clear
10:53 PM 70.0 °F 41.0 °F 35% 29.96 in 10.0 mi South 10.4 mph - N/A   Clear
11:53 PM 68.0 °F 41.0 °F 37% 29.97 in 10.0 mi South 8.1 mph - N/A   Clear